Time,TemperatureF,DewpointF,PressureIn,WindDirection,WindDirectionDegrees,WindSpeedMPH,WindSpeedGustMPH,Humidity,HourlyPrecipIn,Conditions,Clouds,dailyrainin,SoftwareType,DateUTC
2013-04-30 00:01:00,60.3,52.7,29.84,SE,135,2.9,11.2,76,0.00,,,0.00,WUHU21623XXSP,2013-04-30 05:01:00,
2013-04-30 00:06:00,60.1,52.5,29.84,SSE,157,7.4,11.2,76,0.00,,,0.00,WUHU21623XXSP,2013-04-30 05:06:00,
2013-04-30 00:11:00,60.1,52.5,29.84,SE,135,4.9,8.3,76,0.00,,,0.00,WUHU21623XXSP,2013-04-30 05:11:00,
2013-04-30 00:16:00,59.9,52.3,29.84,SSE,157,8.7,8.7,76,0.00,,,0.00,WUHU21623XXSP,2013-04-30 05:16:00,
2013-04-30 00:21:00,59.9,52.3,29.84,SSE,157,4.5,8.7,76,0.00,,,0.00,WUHU21623XXSP,2013-04-30 05:21:00,
2013-04-30 00:26:00,59.5,52.3,29.84,SSE,157,4.3,8.5,77,0.00,,,0.00,WUHU21623XXSP,2013-04-30 05:26:00,
2013-04-30 00:31:00,59.5,52.3,29.85,SSE,157,7.6,7.6,77,0.00,,,0.00,WUHU21623XXSP,2013-04-30 05:31:00,
2013-04-30 00:36:00,59.5,52.3,29.85,SSE,157,6.3,7.6,77,0.00,,,0.00,WUHU21623XXSP,2013-04-30 05:36:00,
2013-04-30 00:41:00,59.2,52.2,29.85,SSE,157,7.2,7.6,77,0.00,,,0.00,WUHU21623XXSP,2013-04-30 05:41:00,
2013-04-30 00:46:00,59.2,52.0,29.85,SSE,157,7.2,7.2,77,0.00,,,0.00,WUHU21623XXSP,2013-04-30 05:46:00,
2013-04-30 00:51:00,59.2,52.3,29.85,SSE,157,6.5,7.2,78,0.00,,,0.00,WUHU21623XXSP,2013-04-30 05:51:00,
2013-04-30 00:56:00,58.8,52.0,29.85,SSE,157,2.7,7.2,78,0.00,,,0.00,WUHU21623XXSP,2013-04-30 05:56:00,
2013-04-30 01:01:00,58.8,52.0,29.85,SSE,157,2.7,6.5,78,0.00,,,0.00,WUHU21623XXSP,2013-04-30 06:01:00,
2013-04-30 01:06:00,58.8,52.0,29.85,SSE,157,3.4,3.4,78,0.00,,,0.00,WUHU21623XXSP,2013-04-30 06:06:00,
2013-04-30 01:11:00,58.8,52.0,29.85,SSE,157,4.9,8.9,78,0.00,,,0.00,WUHU21623XXSP,2013-04-30 06:11:00,
2013-04-30 01:16:00,58.8,52.0,29.85,SSE,157,8.3,8.9,78,0.00,,,0.00,WUHU21623XXSP,2013-04-30 06:16:00,
2013-04-30 01:21:00,58.8,52.3,29.85,SSE,157,3.1,8.3,79,0.00,,,0.00,WUHU21623XXSP,2013-04-30 06:21:00,
2013-04-30 01:26:00,58.8,52.3,29.85,SSE,157,8.3,8.3,79,0.00,,,0.00,WUHU21623XXSP,2013-04-30 06:26:00,
2013-04-30 01:31:00,58.6,52.2,29.84,SE,135,8.1,8.3,79,0.00,,,0.00,WUHU21623XXSP,2013-04-30 06:31:00,
2013-04-30 01:36:00,58.6,52.2,29.85,SSE,157,8.3,8.3,79,0.00,,,0.00,WUHU21623XXSP,2013-04-30 06:36:00,
2013-04-30 01:41:00,58.6,52.2,29.84,SSE,157,6.7,8.3,79,0.00,,,0.00,WUHU21623XXSP,2013-04-30 06:41:00,
2013-04-30 01:46:00,58.6,52.2,29.84,SSE,157,0.0,8.3,79,0.00,,,0.00,WUHU21623XXSP,2013-04-30 06:46:00,
2013-04-30 01:51:00,58.6,52.2,29.84,SSE,157,9.4,9.4,79,0.00,,,0.00,WUHU21623XXSP,2013-04-30 06:51:00,
2013-04-30 01:56:00,58.5,52.0,29.84,SSE,157,5.6,9.4,79,0.00,,,0.00,WUHU21623XXSP,2013-04-30 06:56:00,
2013-04-30 02:01:00,58.5,52.0,29.85,SSE,157,6.9,8.3,79,0.00,,,0.00,WUHU21623XXSP,2013-04-30 07:01:00,
2013-04-30 02:07:00,58.5,52.0,29.84,SSE,157,2.9,6.9,80,0.00,,,0.00,WUHU21623XXSP,2013-04-30 07:07:00,
2013-04-30 02:12:00,58.6,52.2,29.84,SE,135,6.3,6.3,79,0.00,,,0.00,WUHU21623XXSP,2013-04-30 07:12:00,
2013-04-30 02:17:00,58.6,52.5,29.83,SE,135,6.3,6.3,80,0.00,,,0.00,WUHU21623XXSP,2013-04-30 07:17:00,
2013-04-30 02:22:00,58.6,52.2,29.83,SSE,157,6.5,6.5,80,0.00,,,0.00,WUHU21623XXSP,2013-04-30 07:22:00,
2013-04-30 02:27:00,58.5,52.3,29.83,SSE,157,2.7,10.1,80,0.00,,,0.00,WUHU21623XXSP,2013-04-30 07:27:00,
2013-04-30 02:32:00,58.6,52.3,29.83,SSE,157,2.7,10.1,80,0.00,,,0.00,WUHU21623XXSP,2013-04-30 07:32:00,
2013-04-30 02:37:00,58.5,52.3,29.83,SSE,157,7.4,9.2,80,0.00,,,0.00,WUHU21623XXSP,2013-04-30 07:37:00,
2013-04-30 02:41:00,58.3,52.2,29.83,SE,135,7.8,9.2,80,0.00,,,0.00,WUHU21623XXSP,2013-04-30 07:41:00,
2013-04-30 02:46:00,58.3,52.2,29.83,SE,135,4.9,8.1,80,0.00,,,0.00,WUHU21623XXSP,2013-04-30 07:46:00,
2013-04-30 02:51:00,58.3,52.3,29.83,SSE,157,7.4,8.9,80,0.00,,,0.00,WUHU21623XXSP,2013-04-30 07:51:00,
2013-04-30 02:56:00,58.5,52.3,29.84,SSE,157,7.4,8.9,80,0.00,,,0.00,WUHU21623XXSP,2013-04-30 07:56:00,
2013-04-30 03:01:00,58.6,52.3,29.84,SE,135,7.8,7.8,80,0.00,,,0.00,WUHU21623XXSP,2013-04-30 08:01:00,
2013-04-30 03:06:00,58.8,52.7,29.83,South,180,9.4,9.4,80,0.00,,,0.00,WUHU21623XXSP,2013-04-30 08:06:00,
2013-04-30 03:11:00,58.8,52.7,29.83,SSE,157,4.5,9.4,80,0.00,,,0.00,WUHU21623XXSP,2013-04-30 08:11:00,
2013-04-30 03:16:00,58.8,52.7,29.84,SSE,157,3.4,8.1,80,0.00,,,0.00,WUHU21623XXSP,2013-04-30 08:16:00,
2013-04-30 03:21:00,58.8,52.7,29.84,South,180,6.0,8.3,80,0.00,,,0.00,WUHU21623XXSP,2013-04-30 08:21:00,
2013-04-30 03:26:00,58.8,52.7,29.84,SSE,157,5.6,8.3,80,0.00,,,0.00,WUHU21623XXSP,2013-04-30 08:26:00,
2013-04-30 03:32:00,58.8,52.7,29.84,SSE,157,6.5,6.7,80,0.00,,,0.00,WUHU21623XXSP,2013-04-30 08:32:00,
2013-04-30 03:37:00,58.8,52.7,29.84,SSE,157,1.8,8.3,80,0.00,,,0.00,WUHU21623XXSP,2013-04-30 08:37:00,
2013-04-30 03:42:00,58.8,52.7,29.84,SSE,157,5.8,8.3,80,0.00,,,0.00,WUHU21623XXSP,2013-04-30 08:42:00,
2013-04-30 03:47:00,58.8,52.3,29.85,SSE,157,0.0,5.8,79,0.00,,,0.00,WUHU21623XXSP,2013-04-30 08:47:00,
2013-04-30 03:52:00,58.8,52.3,29.85,SSE,157,6.0,6.0,79,0.00,,,0.00,WUHU21623XXSP,2013-04-30 08:52:00,
2013-04-30 03:57:00,58.8,52.3,29.85,SSE,157,3.4,6.0,79,0.00,,,0.00,WUHU21623XXSP,2013-04-30 08:57:00,
2013-04-30 04:02:00,58.8,52.3,29.85,South,180,8.5,8.5,79,0.00,,,0.00,WUHU21623XXSP,2013-04-30 09:02:00,
2013-04-30 04:07:00,58.6,52.2,29.85,SSE,157,3.8,8.5,79,0.00,,,0.00,WUHU21623XXSP,2013-04-30 09:07:00,
2013-04-30 04:12:00,58.6,52.2,29.85,SSE,157,6.0,8.1,79,0.00,,,0.00,WUHU21623XXSP,2013-04-30 09:12:00,
2013-04-30 04:17:00,58.3,52.0,29.85,SE,135,0.0,9.2,79,0.00,,,0.00,WUHU21623XXSP,2013-04-30 09:17:00,
2013-04-30 04:22:00,58.1,52.0,29.84,SSE,157,8.9,11.0,80,0.00,,,0.00,WUHU21623XXSP,2013-04-30 09:22:00,
2013-04-30 04:27:00,58.1,52.0,29.84,SSE,157,6.0,11.0,80,0.00,,,0.00,WUHU21623XXSP,2013-04-30 09:27:00,
2013-04-30 04:32:00,58.1,52.0,29.84,SSE,157,8.7,8.7,80,0.00,,,0.00,WUHU21623XXSP,2013-04-30 09:32:00,
2013-04-30 04:37:00,57.9,51.8,29.84,SSE,157,10.1,10.1,80,0.00,,,0.00,WUHU21623XXSP,2013-04-30 09:37:00,
2013-04-30 04:42:00,58.1,51.8,29.85,SSE,157,6.9,10.1,80,0.00,,,0.00,WUHU21623XXSP,2013-04-30 09:42:00,
2013-04-30 04:47:00,58.1,51.8,29.84,SSE,157,6.9,6.9,80,0.00,,,0.00,WUHU21623XXSP,2013-04-30 09:47:00,
2013-04-30 04:52:00,57.9,52.0,29.84,SSE,157,5.6,6.9,81,0.00,,,0.00,WUHU21623XXSP,2013-04-30 09:52:00,
2013-04-30 04:57:00,57.9,52.1,29.84,SSE,157,1.8,7.6,81,0.00,,,0.00,WUHU21623XXSP,2013-04-30 09:57:00,
2013-04-30 05:02:00,57.9,52.1,29.84,SE,135,2.9,7.6,81,0.00,,,0.00,WUHU21623XXSP,2013-04-30 10:02:00,
2013-04-30 05:07:00,57.7,51.9,29.84,SSE,157,6.0,7.4,81,0.00,,,0.00,WUHU21623XXSP,2013-04-30 10:07:00,
2013-04-30 05:12:00,57.6,51.8,29.84,SSE,157,7.8,7.8,81,0.00,,,0.00,WUHU21623XXSP,2013-04-30 10:12:00,
2013-04-30 05:17:00,57.4,51.6,29.85,SSE,157,10.5,10.5,81,0.00,,,0.00,WUHU21623XXSP,2013-04-30 10:17:00,
2013-04-30 05:22:00,57.0,51.5,29.85,SSE,157,8.9,10.5,82,0.00,,,0.00,WUHU21623XXSP,2013-04-30 10:22:00,
2013-04-30 05:27:00,57.0,51.5,29.85,SSE,157,6.9,8.9,82,0.00,,,0.00,WUHU21623XXSP,2013-04-30 10:27:00,
2013-04-30 05:32:00,57.0,51.5,29.85,South,180,7.8,7.8,82,0.00,,,0.00,WUHU21623XXSP,2013-04-30 10:32:00,
2013-04-30 05:37:00,57.0,51.5,29.85,SSE,157,0.0,7.8,82,0.00,,,0.00,WUHU21623XXSP,2013-04-30 10:37:00,
2013-04-30 05:42:00,56.8,51.4,29.85,SSE,157,8.3,8.3,82,0.00,,,0.00,WUHU21623XXSP,2013-04-30 10:42:00,
2013-04-30 05:47:00,56.8,51.7,29.85,SSE,157,9.8,9.8,83,0.00,,,0.00,WUHU21623XXSP,2013-04-30 10:47:00,
2013-04-30 05:52:00,56.5,51.7,29.85,SSE,157,5.6,9.8,83,0.00,,,0.00,WUHU21623XXSP,2013-04-30 10:52:00,
2013-04-30 05:57:00,56.7,51.5,29.85,SSE,157,8.7,8.7,83,0.00,,,0.00,WUHU21623XXSP,2013-04-30 10:57:00,
2013-04-30 06:02:00,56.5,51.3,29.85,SSE,157,0.0,8.7,83,0.00,,,0.00,WUHU21623XXSP,2013-04-30 11:02:00,
2013-04-30 06:07:00,56.5,51.7,29.85,SSE,157,0.0,8.7,84,0.00,,,0.00,WUHU21623XXSP,2013-04-30 11:07:00,
2013-04-30 06:12:00,56.7,51.8,29.85,SSE,157,0.0,8.7,84,0.00,,,0.00,WUHU21623XXSP,2013-04-30 11:12:00,
2013-04-30 06:17:00,56.8,52.0,29.86,SSE,157,0.0,4.3,84,0.00,,,0.00,WUHU21623XXSP,2013-04-30 11:17:00,
2013-04-30 06:22:00,56.8,52.0,29.86,SSE,157,3.4,8.1,84,0.00,,,0.00,WUHU21623XXSP,2013-04-30 11:22:00,
2013-04-30 06:27:00,56.8,52.0,29.86,SE,135,7.8,8.1,84,0.00,,,0.00,WUHU21623XXSP,2013-04-30 11:27:00,
2013-04-30 06:32:00,57.0,52.2,29.87,SSE,157,5.6,7.8,84,0.00,,,0.00,WUHU21623XXSP,2013-04-30 11:32:00,
2013-04-30 06:37:00,57.0,52.2,29.87,SSE,157,0.0,5.6,84,0.00,,,0.00,WUHU21623XXSP,2013-04-30 11:37:00,
2013-04-30 06:42:00,57.0,52.2,29.87,SSE,157,2.2,2.2,84,0.00,,,0.00,WUHU21623XXSP,2013-04-30 11:42:00,
2013-04-30 06:47:00,57.4,52.6,29.87,SSE,157,7.2,7.2,84,0.00,,,0.00,WUHU21623XXSP,2013-04-30 11:47:00,
2013-04-30 06:52:00,57.6,52.7,29.87,SSE,157,7.2,8.3,84,0.00,,,0.00,WUHU21623XXSP,2013-04-30 11:52:00,
2013-04-30 06:57:00,57.9,53.1,29.88,SSE,157,6.7,8.3,84,0.00,,,0.00,WUHU21623XXSP,2013-04-30 11:57:00,
2013-04-30 07:02:00,58.1,53.1,29.88,SE,135,3.4,6.9,83,0.00,,,0.00,WUHU21623XXSP,2013-04-30 12:02:00,
2013-04-30 07:07:00,58.6,53.5,29.88,SSE,157,7.8,7.8,83,0.00,,,0.00,WUHU21623XXSP,2013-04-30 12:07:00,
2013-04-30 07:12:00,58.8,53.7,29.88,SSE,157,8.7,8.7,83,0.00,,,0.00,WUHU21623XXSP,2013-04-30 12:12:00,
2013-04-30 07:17:00,58.8,53.7,29.88,SSE,157,5.1,8.7,83,0.00,,,0.00,WUHU21623XXSP,2013-04-30 12:17:00,
2013-04-30 07:22:00,59.7,54.2,29.88,South,180,9.4,9.4,82,0.00,,,0.00,WUHU21623XXSP,2013-04-30 12:22:00,
2013-04-30 07:27:00,60.1,54.3,29.88,SSE,157,9.2,10.5,81,0.00,,,0.00,WUHU21623XXSP,2013-04-30 12:27:00,
2013-04-30 07:32:00,60.4,54.6,29.88,SSE,157,11.0,11.0,81,0.00,,,0.00,WUHU21623XXSP,2013-04-30 12:32:00,
2013-04-30 07:37:00,61.2,55.0,29.88,SSE,157,12.5,12.5,80,0.00,,,0.00,WUHU21623XXSP,2013-04-30 12:37:00,
2013-04-30 07:42:00,61.5,55.0,29.88,SE,135,7.6,12.5,79,0.00,,,0.00,WUHU21623XXSP,2013-04-30 12:42:00,
2013-04-30 07:47:00,61.9,55.1,29.88,SSE,157,16.6,16.6,79,0.00,,,0.00,WUHU21623XXSP,2013-04-30 12:47:00,
2013-04-30 07:52:00,62.2,55.3,29.88,SSE,157,10.7,16.6,77,0.00,,,0.00,WUHU21623XXSP,2013-04-30 12:52:00,
2013-04-30 07:57:00,62.1,54.7,29.88,SSE,157,15.0,15.0,77,0.00,,,0.00,WUHU21623XXSP,2013-04-30 12:57:00,
2013-04-30 08:02:00,61.9,54.6,29.88,South,180,3.4,15.0,77,0.00,,,0.00,WUHU21623XXSP,2013-04-30 13:02:00,
2013-04-30 08:07:00,61.9,54.6,29.88,South,180,10.1,15.0,77,0.00,,,0.00,WUHU21623XXSP,2013-04-30 13:07:00,
2013-04-30 08:12:00,62.1,54.7,29.88,SSE,157,10.3,10.3,77,0.00,,,0.00,WUHU21623XXSP,2013-04-30 13:12:00,
2013-04-30 08:17:00,62.4,54.9,29.88,SSW,202,7.2,10.3,77,0.00,,,0.00,WUHU21623XXSP,2013-04-30 13:17:00,
2013-04-30 08:22:00,62.8,55.2,29.88,SSE,157,1.8,11.6,77,0.00,,,0.00,WUHU21623XXSP,2013-04-30 13:22:00,
2013-04-30 08:27:00,63.3,55.9,29.88,SSE,157,13.2,13.2,77,0.00,,,0.00,WUHU21623XXSP,2013-04-30 13:27:00,
2013-04-30 08:32:00,64.8,56.5,29.88,SSE,157,7.2,13.2,75,0.00,,,0.00,WUHU21623XXSP,2013-04-30 13:32:00,
2013-04-30 08:37:00,65.5,56.9,29.88,SSE,157,12.8,12.8,75,0.00,,,0.00,WUHU21623XXSP,2013-04-30 13:37:00,
2013-04-30 08:42:00,66.2,57.3,29.88,SSE,157,8.3,12.8,74,0.00,,,0.00,WUHU21623XXSP,2013-04-30 13:42:00,
2013-04-30 08:47:00,67.3,57.6,29.88,SSE,157,3.8,8.3,72,0.00,,,0.00,WUHU21623XXSP,2013-04-30 13:47:00,
2013-04-30 08:52:00,67.6,57.9,29.88,South,180,9.4,9.4,70,0.00,,,0.00,WUHU21623XXSP,2013-04-30 13:52:00,
2013-04-30 08:57:00,68.0,57.9,29.88,SSE,157,13.0,13.0,70,0.00,,,0.00,WUHU21623XXSP,2013-04-30 13:57:00,
2013-04-30 09:02:00,68.7,57.8,29.87,SSE,157,5.6,13.0,69,0.00,,,0.00,WUHU21623XXSP,2013-04-30 14:02:00,
2013-04-30 09:07:00,69.1,58.3,29.87,SSE,157,6.7,9.4,69,0.00,,,0.00,WUHU21623XXSP,2013-04-30 14:07:00,
2013-04-30 09:12:00,69.3,58.6,29.87,South,180,7.6,9.4,69,0.00,,,0.00,WUHU21623XXSP,2013-04-30 14:12:00,
2013-04-30 09:17:00,69.3,58.4,29.87,South,180,9.2,9.8,68,0.00,,,0.00,WUHU21623XXSP,2013-04-30 14:17:00,
2013-04-30 09:22:00,69.3,58.2,29.87,South,180,10.5,10.5,68,0.00,,,0.00,WUHU21623XXSP,2013-04-30 14:22:00,
2013-04-30 09:27:00,69.1,58.0,29.86,South,180,9.8,10.5,68,0.00,,,0.00,WUHU21623XXSP,2013-04-30 14:27:00,
2013-04-30 09:32:00,69.1,58.0,29.86,SSW,202,11.6,11.6,68,0.00,,,0.00,WUHU21623XXSP,2013-04-30 14:32:00,
2013-04-30 09:37:00,69.1,58.0,29.86,SSE,157,14.8,14.8,68,0.00,,,0.00,WUHU21623XXSP,2013-04-30 14:37:00,
2013-04-30 09:42:00,69.1,58.5,29.86,SSE,157,9.2,14.8,69,0.00,,,0.00,WUHU21623XXSP,2013-04-30 14:42:00,
2013-04-30 09:47:00,69.6,58.5,29.87,SSE,157,5.6,14.8,68,0.00,,,0.00,WUHU21623XXSP,2013-04-30 14:47:00,
2013-04-30 09:52:00,70.0,58.7,29.87,South,180,11.9,12.8,68,0.00,,,0.00,WUHU21623XXSP,2013-04-30 14:52:00,
2013-04-30 09:57:00,69.8,58.3,29.87,SSE,157,8.1,12.8,67,0.00,,,0.00,WUHU21623XXSP,2013-04-30 14:57:00,
2013-04-30 10:02:00,70.0,58.5,29.87,SSE,157,6.9,12.8,67,0.00,,,0.00,WUHU21623XXSP,2013-04-30 15:02:00,
2013-04-30 10:07:00,70.2,58.6,29.87,SSE,157,11.9,11.9,67,0.00,,,0.00,WUHU21623XXSP,2013-04-30 15:07:00,
2013-04-30 10:12:00,70.3,58.8,29.87,SSW,202,8.7,11.9,67,0.00,,,0.00,WUHU21623XXSP,2013-04-30 15:12:00,
2013-04-30 10:17:00,70.3,58.8,29.87,SSE,157,7.8,8.7,67,0.00,,,0.00,WUHU21623XXSP,2013-04-30 15:17:00,
2013-04-30 10:22:00,70.5,59.0,29.87,SSE,157,7.8,8.7,67,0.00,,,0.00,WUHU21623XXSP,2013-04-30 15:22:00,
2013-04-30 10:27:00,70.5,59.0,29.87,SSE,157,8.9,8.9,67,0.00,,,0.00,WUHU21623XXSP,2013-04-30 15:27:00,
2013-04-30 10:32:00,70.7,59.0,29.88,South,180,8.1,12.3,67,0.00,,,0.00,WUHU21623XXSP,2013-04-30 15:32:00,
2013-04-30 10:37:00,70.9,59.3,29.87,SSE,157,5.4,12.3,67,0.00,,,0.00,WUHU21623XXSP,2013-04-30 15:37:00,
2013-04-30 10:42:00,70.9,59.3,29.88,SSE,157,11.6,11.6,67,0.00,,,0.00,WUHU21623XXSP,2013-04-30 15:42:00,
2013-04-30 10:47:00,71.4,59.9,29.88,SSE,157,4.5,12.8,67,0.00,,,0.00,WUHU21623XXSP,2013-04-30 15:47:00,
2013-04-30 10:52:00,71.8,59.9,29.88,South,180,9.4,12.8,67,0.00,,,0.00,WUHU21623XXSP,2013-04-30 15:52:00,
2013-04-30 10:57:00,72.5,60.9,29.88,SE,135,7.8,9.4,67,0.00,,,0.00,WUHU21623XXSP,2013-04-30 15:57:00,
2013-04-30 11:02:00,73.2,61.0,29.88,SSE,157,5.6,9.4,65,0.00,,,0.00,WUHU21623XXSP,2013-04-30 16:02:00,
2013-04-30 11:07:00,73.9,61.1,29.88,SSE,157,6.9,8.9,65,0.00,,,0.00,WUHU21623XXSP,2013-04-30 16:07:00,
2013-04-30 11:12:00,74.5,61.5,29.88,South,180,7.6,11.0,64,0.00,,,0.00,WUHU21623XXSP,2013-04-30 16:12:00,
2013-04-30 11:17:00,75.0,61.8,29.88,South,180,9.4,11.0,64,0.00,,,0.00,WUHU21623XXSP,2013-04-30 16:17:00,
2013-04-30 11:22:00,75.4,61.9,29.88,South,180,8.9,10.5,63,0.00,,,0.00,WUHU21623XXSP,2013-04-30 16:22:00,
2013-04-30 11:27:00,75.7,62.2,29.88,South,180,16.3,16.3,63,0.00,,,0.00,WUHU21623XXSP,2013-04-30 16:27:00,
2013-04-30 11:32:00,75.7,61.8,29.88,SSW,202,15.9,16.3,62,0.00,,,0.00,WUHU21623XXSP,2013-04-30 16:32:00,
2013-04-30 11:37:00,75.9,62.0,29.88,SSE,157,12.8,15.9,62,0.00,,,0.00,WUHU21623XXSP,2013-04-30 16:37:00,
2013-04-30 11:42:00,76.3,61.8,29.88,SSE,157,7.4,12.8,61,0.00,,,0.00,WUHU21623XXSP,2013-04-30 16:42:00,
2013-04-30 11:47:00,76.6,61.7,29.88,SSW,202,15.4,15.4,61,0.00,,,0.00,WUHU21623XXSP,2013-04-30 16:47:00,
2013-04-30 11:52:00,76.6,62.3,29.87,SSE,157,11.9,15.4,61,0.00,,,0.00,WUHU21623XXSP,2013-04-30 16:52:00,
2013-04-30 11:57:00,77.2,62.2,29.87,SSE,157,6.5,12.8,60,0.00,,,0.00,WUHU21623XXSP,2013-04-30 16:57:00,
2013-04-30 12:02:00,77.5,62.6,29.87,SSE,157,13.2,13.2,60,0.00,,,0.00,WUHU21623XXSP,2013-04-30 17:02:00,
2013-04-30 12:07:00,77.9,62.8,29.87,SSE,157,7.8,13.2,60,0.00,,,0.00,WUHU21623XXSP,2013-04-30 17:07:00,
2013-04-30 12:12:00,78.1,62.6,29.87,SSW,202,0.0,7.8,59,0.00,,,0.00,WUHU21623XXSP,2013-04-30 17:12:00,
2013-04-30 12:17:00,78.6,62.6,29.87,SSE,157,13.4,13.4,58,0.00,,,0.00,WUHU21623XXSP,2013-04-30 17:17:00,
2013-04-30 12:22:00,78.6,62.1,29.88,South,180,15.4,15.4,57,0.00,,,0.00,WUHU21623XXSP,2013-04-30 17:22:00,
2013-04-30 12:27:00,78.6,62.1,29.88,South,180,5.8,15.4,57,0.00,,,0.00,WUHU21623XXSP,2013-04-30 17:27:00,
2013-04-30 12:32:00,79.0,63.0,29.87,South,180,12.3,15.4,58,0.00,,,0.00,WUHU21623XXSP,2013-04-30 17:32:00,
2013-04-30 12:37:00,79.0,62.5,29.87,South,180,13.0,13.0,56,0.00,,,0.00,WUHU21623XXSP,2013-04-30 17:37:00,
2013-04-30 12:42:00,79.2,62.6,29.87,SSW,202,8.3,13.0,57,0.00,,,0.00,WUHU21623XXSP,2013-04-30 17:42:00,
2013-04-30 12:47:00,79.5,62.9,29.87,South,180,3.8,13.0,57,0.00,,,0.00,WUHU21623XXSP,2013-04-30 17:47:00,
2013-04-30 12:52:00,80.1,62.7,29.87,SE,135,0.0,3.8,56,0.00,,,0.00,WUHU21623XXSP,2013-04-30 17:52:00,
2013-04-30 12:57:00,80.4,63.2,29.87,South,180,1.6,1.6,56,0.00,,,0.00,WUHU21623XXSP,2013-04-30 17:57:00,
2013-04-30 13:02:00,80.6,63.4,29.87,South,180,14.3,14.3,56,0.00,,,0.00,WUHU21623XXSP,2013-04-30 18:02:00,
2013-04-30 13:07:00,80.8,63.6,29.87,SSW,202,4.7,14.3,55,0.00,,,0.00,WUHU21623XXSP,2013-04-30 18:07:00,
2013-04-30 13:12:00,81.3,63.2,29.87,South,180,6.7,6.7,55,0.00,,,0.00,WUHU21623XXSP,2013-04-30 18:12:00,
2013-04-30 13:17:00,81.5,63.5,29.86,SSE,157,11.4,11.4,55,0.00,,,0.00,WUHU21623XXSP,2013-04-30 18:17:00,
2013-04-30 13:22:00,81.5,63.2,29.86,SSE,157,9.8,11.4,54,0.00,,,0.00,WUHU21623XXSP,2013-04-30 18:22:00,
2013-04-30 13:27:00,81.3,63.2,29.87,South,180,10.1,10.1,54,0.00,,,0.00,WUHU21623XXSP,2013-04-30 18:27:00,
2013-04-30 13:32:00,81.5,63.2,29.86,SSW,202,11.2,13.4,54,0.00,,,0.00,WUHU21623XXSP,2013-04-30 18:32:00,
2013-04-30 13:37:00,81.7,63.3,29.86,SSE,157,8.3,13.4,54,0.00,,,0.00,WUHU21623XXSP,2013-04-30 18:37:00,
2013-04-30 13:42:00,81.9,63.5,29.86,SSE,157,8.1,14.1,54,0.00,,,0.00,WUHU21623XXSP,2013-04-30 18:42:00,
2013-04-30 13:47:00,82.0,63.1,29.86,SSE,157,9.4,14.1,53,0.00,,,0.00,WUHU21623XXSP,2013-04-30 18:47:00,
2013-04-30 13:52:00,82.0,62.6,29.86,South,180,9.8,13.4,52,0.00,,,0.00,WUHU21623XXSP,2013-04-30 18:52:00,
2013-04-30 13:57:00,82.2,63.3,29.86,South,180,8.7,9.8,53,0.00,,,0.00,WUHU21623XXSP,2013-04-30 18:57:00,
2013-04-30 14:02:00,82.9,63.5,29.86,SSE,157,9.6,16.3,52,0.00,,,0.00,WUHU21623XXSP,2013-04-30 19:02:00,
2013-04-30 14:07:00,82.9,63.5,29.86,SSE,157,7.2,16.3,52,0.00,,,0.00,WUHU21623XXSP,2013-04-30 19:07:00,
2013-04-30 14:12:00,83.1,63.6,29.86,SSE,157,12.1,12.1,52,0.00,,,0.00,WUHU21623XXSP,2013-04-30 19:12:00,
2013-04-30 14:17:00,83.5,63.0,29.86,SSE,157,6.5,16.1,50,0.00,,,0.00,WUHU21623XXSP,2013-04-30 19:17:00,
2013-04-30 14:22:00,83.7,63.7,29.85,South,180,10.7,16.1,50,0.00,,,0.00,WUHU21623XXSP,2013-04-30 19:22:00,
2013-04-30 14:27:00,84.0,62.9,29.86,South,180,15.2,15.2,49,0.00,,,0.00,WUHU21623XXSP,2013-04-30 19:27:00,
2013-04-30 14:32:00,84.2,62.2,29.85,SSE,157,9.4,15.2,48,0.00,,,0.00,WUHU21623XXSP,2013-04-30 19:32:00,
2013-04-30 14:37:00,84.4,63.2,29.86,SSW,202,9.6,9.6,49,0.00,,,0.00,WUHU21623XXSP,2013-04-30 19:37:00,
2013-04-30 14:42:00,84.6,62.0,29.86,WSW,247,0.0,9.6,47,0.00,,,0.00,WUHU21623XXSP,2013-04-30 19:42:00,
2013-04-30 14:47:00,84.6,62.1,29.86,WSW,247,13.9,13.9,47,0.00,,,0.00,WUHU21623XXSP,2013-04-30 19:47:00,
2013-04-30 14:52:00,84.7,61.6,29.86,WSW,247,8.1,13.9,46,0.00,,,0.00,WUHU21623XXSP,2013-04-30 19:52:00,
2013-04-30 14:57:00,84.7,61.6,29.85,WSW,247,16.1,16.1,46,0.00,,,0.00,WUHU21623XXSP,2013-04-30 19:57:00,
2013-04-30 15:02:00,84.6,61.5,29.85,WSW,247,6.9,16.1,46,0.00,,,0.00,WUHU21623XXSP,2013-04-30 20:02:00,
2013-04-30 15:07:00,84.7,61.6,29.85,WSW,247,14.5,14.5,46,0.00,,,0.00,WUHU21623XXSP,2013-04-30 20:07:00,
2013-04-30 15:12:00,84.7,61.6,29.85,WSW,247,9.8,14.5,46,0.00,,,0.00,WUHU21623XXSP,2013-04-30 20:12:00,
2013-04-30 15:17:00,84.9,61.8,29.85,WSW,247,10.3,14.5,46,0.00,,,0.00,WUHU21623XXSP,2013-04-30 20:17:00,
2013-04-30 15:22:00,85.1,61.3,29.85,WSW,247,8.3,13.6,45,0.00,,,0.00,WUHU21623XXSP,2013-04-30 20:22:00,
2013-04-30 15:27:00,85.1,61.3,29.85,WSW,247,4.5,13.6,45,0.00,,,0.00,WUHU21623XXSP,2013-04-30 20:27:00,
2013-04-30 15:32:00,85.1,61.3,29.85,WSW,247,10.1,13.0,45,0.00,,,0.00,WUHU21623XXSP,2013-04-30 20:32:00,
2013-04-30 15:37:00,85.1,61.3,29.85,WSW,247,7.2,13.0,45,0.00,,,0.00,WUHU21623XXSP,2013-04-30 20:37:00,
2013-04-30 15:42:00,85.1,61.3,29.85,WSW,247,10.7,11.6,45,0.00,,,0.00,WUHU21623XXSP,2013-04-30 20:42:00,
2013-04-30 15:47:00,85.1,61.3,29.85,WSW,247,5.1,11.6,45,0.00,,,0.00,WUHU21623XXSP,2013-04-30 20:47:00,
2013-04-30 15:52:00,84.9,61.2,29.85,WSW,247,11.0,11.6,45,0.00,,,0.00,WUHU21623XXSP,2013-04-30 20:52:00,
2013-04-30 15:57:00,85.3,61.5,29.85,WSW,247,8.5,11.6,45,0.00,,,0.00,WUHU21623XXSP,2013-04-30 20:57:00,
2013-04-30 16:02:00,85.6,61.8,29.85,WSW,247,12.3,12.3,45,0.00,,,0.00,WUHU21623XXSP,2013-04-30 21:02:00,
2013-04-30 16:07:00,85.3,61.7,29.85,WSW,247,11.4,12.5,44,0.00,,,0.00,WUHU21623XXSP,2013-04-30 21:07:00,
2013-04-30 16:12:00,85.3,60.9,29.85,WSW,247,2.2,17.2,44,0.00,,,0.00,WUHU21623XXSP,2013-04-30 21:12:00,
2013-04-30 16:17:00,85.6,61.2,29.85,WSW,247,8.5,17.2,44,0.00,,,0.00,WUHU21623XXSP,2013-04-30 21:17:00,
2013-04-30 16:22:00,85.6,61.2,29.85,WSW,247,8.5,8.5,44,0.00,,,0.00,WUHU21623XXSP,2013-04-30 21:22:00,
2013-04-30 16:27:00,85.6,61.2,29.85,WSW,247,11.0,11.0,44,0.00,,,0.00,WUHU21623XXSP,2013-04-30 21:27:00,
2013-04-30 16:32:00,85.3,60.9,29.86,WSW,247,14.8,14.8,44,0.00,,,0.00,WUHU21623XXSP,2013-04-30 21:32:00,
2013-04-30 16:37:00,84.9,60.5,29.86,WSW,247,9.6,14.8,44,0.00,,,0.00,WUHU21623XXSP,2013-04-30 21:37:00,
2013-04-30 16:42:00,84.7,60.4,29.85,WSW,247,10.3,12.5,44,0.00,,,0.00,WUHU21623XXSP,2013-04-30 21:42:00,
2013-04-30 16:47:00,84.9,61.0,29.86,WSW,247,6.3,12.5,45,0.00,,,0.00,WUHU21623XXSP,2013-04-30 21:47:00,
2013-04-30 16:52:00,84.9,61.8,29.86,WSW,247,8.1,10.3,46,0.00,,,0.00,WUHU21623XXSP,2013-04-30 21:52:00,
2013-04-30 16:57:00,84.4,61.3,29.86,WSW,247,8.9,8.9,46,0.00,,,0.00,WUHU21623XXSP,2013-04-30 21:57:00,
2013-04-30 17:02:00,84.4,62.0,29.86,South,180,7.4,8.9,47,0.00,,,0.00,WUHU21623XXSP,2013-04-30 22:02:00,
2013-04-30 17:07:00,84.0,61.8,29.86,WSW,247,4.9,8.9,46,0.00,,,0.00,WUHU21623XXSP,2013-04-30 22:07:00,
2013-04-30 17:12:00,84.0,61.6,29.87,WSW,247,4.9,4.9,47,0.00,,,0.00,WUHU21623XXSP,2013-04-30 22:12:00,
2013-04-30 17:17:00,83.8,61.4,29.87,South,180,12.3,12.8,47,0.00,,,0.00,WUHU21623XXSP,2013-04-30 22:17:00,
2013-04-30 17:22:00,83.5,61.4,29.87,South,180,12.3,12.8,47,0.00,,,0.00,WUHU21623XXSP,2013-04-30 22:22:00,
2013-04-30 17:27:00,83.3,61.5,29.88,WSW,247,1.8,12.3,48,0.00,,,0.00,WUHU21623XXSP,2013-04-30 22:27:00,
2013-04-30 17:32:00,83.3,61.5,29.87,WSW,247,12.8,13.0,48,0.00,,,0.00,WUHU21623XXSP,2013-04-30 22:32:00,
2013-04-30 17:37:00,83.3,61.5,29.87,WSW,247,11.6,13.0,48,0.00,,,0.00,WUHU21623XXSP,2013-04-30 22:37:00,
2013-04-30 17:42:00,83.3,61.5,29.88,WSW,247,8.9,11.6,48,0.00,,,0.00,WUHU21623XXSP,2013-04-30 22:42:00,
2013-04-30 17:47:00,83.1,61.4,29.88,WSW,247,17.7,17.7,48,0.00,,,0.00,WUHU21623XXSP,2013-04-30 22:47:00,
2013-04-30 17:52:00,82.9,61.2,29.88,WSW,247,11.2,17.7,48,0.00,,,0.00,WUHU21623XXSP,2013-04-30 22:52:00,
2013-04-30 17:57:00,82.6,61.4,29.88,WSW,247,8.1,11.2,49,0.00,,,0.00,WUHU21623XXSP,2013-04-30 22:57:00,
2013-04-30 18:02:00,82.6,61.4,29.88,WSW,247,11.6,14.8,49,0.00,,,0.00,WUHU21623XXSP,2013-04-30 23:02:00,
2013-04-30 18:07:00,82.2,61.1,29.88,WSW,247,12.8,14.8,49,0.00,,,0.00,WUHU21623XXSP,2013-04-30 23:07:00,
2013-04-30 18:12:00,82.0,61.6,29.88,WSW,247,10.7,12.8,50,0.00,,,0.00,WUHU21623XXSP,2013-04-30 23:12:00,
2013-04-30 18:17:00,82.0,61.6,29.88,WSW,247,14.8,14.8,50,0.00,,,0.00,WUHU21623XXSP,2013-04-30 23:17:00,
2013-04-30 18:22:00,82.0,61.6,29.89,WSW,247,16.3,16.3,50,0.00,,,0.00,WUHU21623XXSP,2013-04-30 23:22:00,
2013-04-30 18:27:00,81.5,61.1,29.89,WSW,247,12.5,16.3,50,0.00,,,0.00,WUHU21623XXSP,2013-04-30 23:27:00,
2013-04-30 18:32:00,81.3,61.4,29.89,WSW,247,12.1,15.0,51,0.00,,,0.00,WUHU21623XXSP,2013-04-30 23:32:00,
2013-04-30 18:37:00,81.1,61.3,29.89,WSW,247,13.9,13.9,51,0.00,,,0.00,WUHU21623XXSP,2013-04-30 23:37:00,
2013-04-30 18:42:00,81.1,61.3,29.89,WSW,247,6.9,13.9,51,0.00,,,0.00,WUHU21623XXSP,2013-04-30 23:42:00,
2013-04-30 18:47:00,80.8,61.5,29.89,South,180,11.4,13.9,52,0.00,,,0.00,WUHU21623XXSP,2013-04-30 23:47:00,
2013-04-30 18:52:00,80.6,61.3,29.89,SSE,157,8.7,11.4,52,0.00,,,0.00,WUHU21623XXSP,2013-04-30 23:52:00,
2013-04-30 18:57:00,80.2,61.0,29.89,South,180,9.8,9.8,52,0.00,,,0.00,WUHU21623XXSP,2013-04-30 23:57:00,
2013-04-30 19:02:00,80.1,61.3,29.89,SSE,157,7.6,10.7,53,0.00,,,0.00,WUHU21623XXSP,2013-05-01 00:02:00,
2013-04-30 19:07:00,79.7,61.0,29.89,SSE,157,7.4,10.7,53,0.00,,,0.00,WUHU21623XXSP,2013-05-01 00:07:00,
2013-04-30 19:12:00,79.3,60.7,29.90,South,180,9.6,13.2,53,0.00,,,0.00,WUHU21623XXSP,2013-05-01 00:12:00,
2013-04-30 19:17:00,79.3,60.7,29.89,SSE,157,7.2,13.2,53,0.00,,,0.00,WUHU21623XXSP,2013-05-01 00:17:00,
2013-04-30 19:22:00,78.6,60.9,29.90,South,180,9.6,10.5,54,0.00,,,0.00,WUHU21623XXSP,2013-05-01 00:22:00,
2013-04-30 19:27:00,78.6,61.1,29.90,SSE,157,7.6,9.6,55,0.00,,,0.00,WUHU21623XXSP,2013-05-01 00:27:00,
2013-04-30 19:32:00,77.9,60.9,29.90,SSE,157,8.5,8.5,56,0.00,,,0.00,WUHU21623XXSP,2013-05-01 00:32:00,
2013-04-30 19:37:00,77.5,60.5,29.90,SSE,157,10.1,10.1,56,0.00,,,0.00,WUHU21623XXSP,2013-05-01 00:37:00,
2013-04-30 19:42:00,77.2,61.2,29.90,South,180,13.0,13.0,58,0.00,,,0.00,WUHU21623XXSP,2013-05-01 00:42:00,
2013-04-30 19:47:00,77.2,61.2,29.91,SSE,157,9.2,13.0,58,0.00,,,0.00,WUHU21623XXSP,2013-05-01 00:47:00,
2013-04-30 19:52:00,76.8,61.4,29.91,SSE,157,9.2,9.2,59,0.00,,,0.00,WUHU21623XXSP,2013-05-01 00:52:00,
2013-04-30 19:57:00,76.3,60.9,29.91,SSE,157,5.6,9.6,59,0.00,,,0.00,WUHU21623XXSP,2013-05-01 00:57:00,
2013-04-30 20:02:00,75.9,61.1,29.91,SSE,157,9.2,9.6,60,0.00,,,0.00,WUHU21623XXSP,2013-05-01 01:02:00,
2013-04-30 20:07:00,75.7,60.9,29.91,SSE,157,9.2,9.2,60,0.00,,,0.00,WUHU21623XXSP,2013-05-01 01:07:00,
2013-04-30 20:12:00,75.6,61.2,29.92,SSE,157,0.2,9.2,61,0.00,,,0.00,WUHU21623XXSP,2013-05-01 01:12:00,
2013-04-30 20:17:00,75.4,61.0,29.92,South,180,8.3,8.9,61,0.00,,,0.00,WUHU21623XXSP,2013-05-01 01:17:00,
2013-04-30 20:22:00,75.0,61.3,29.92,SSE,157,5.8,8.9,62,0.00,,,0.00,WUHU21623XXSP,2013-05-01 01:22:00,
2013-04-30 20:27:00,74.8,60.9,29.92,SSE,157,6.9,6.9,62,0.00,,,0.00,WUHU21623XXSP,2013-05-01 01:27:00,
2013-04-30 20:32:00,74.5,60.6,29.93,SE,135,8.7,8.7,62,0.00,,,0.00,WUHU21623XXSP,2013-05-01 01:32:00,
2013-04-30 20:37:00,74.1,60.9,29.93,SSE,157,7.4,8.7,63,0.00,,,0.00,WUHU21623XXSP,2013-05-01 01:37:00,
2013-04-30 20:42:00,74.1,60.7,29.93,SSE,157,7.4,14.8,63,0.00,,,0.00,WUHU21623XXSP,2013-05-01 01:42:00,
2013-04-30 20:47:00,73.9,60.5,29.93,SSE,157,8.5,14.8,64,0.00,,,0.00,WUHU21623XXSP,2013-05-01 01:47:00,
2013-04-30 20:52:00,73.8,60.8,29.93,SSE,157,8.1,8.5,64,0.00,,,0.00,WUHU21623XXSP,2013-05-01 01:52:00,
2013-04-30 20:58:00,73.6,60.6,29.93,South,180,8.9,8.9,64,0.00,,,0.00,WUHU21623XXSP,2013-05-01 01:58:00,
2013-04-30 21:03:00,73.4,60.4,29.93,SSE,157,7.6,8.9,64,0.00,,,0.00,WUHU21623XXSP,2013-05-01 02:03:00,
2013-04-30 21:08:00,73.2,60.3,29.93,SSE,157,6.0,7.6,64,0.00,,,0.00,WUHU21623XXSP,2013-05-01 02:08:00,
2013-04-30 21:13:00,73.0,60.5,29.93,SE,135,7.4,8.7,65,0.00,,,0.00,WUHU21623XXSP,2013-05-01 02:13:00,
2013-04-30 21:18:00,72.9,60.4,29.93,South,180,8.3,8.7,65,0.00,,,0.00,WUHU21623XXSP,2013-05-01 02:18:00,
2013-04-30 21:23:00,72.5,60.0,29.94,SSE,157,6.7,10.1,65,0.00,,,0.00,WUHU21623XXSP,2013-05-01 02:23:00,
2013-04-30 21:28:00,72.3,60.0,29.94,SE,135,7.2,10.1,65,0.00,,,0.00,WUHU21623XXSP,2013-05-01 02:28:00,
2013-04-30 21:33:00,72.3,59.9,29.94,SSE,157,7.8,7.8,65,0.00,,,0.00,WUHU21623XXSP,2013-05-01 02:33:00,
2013-04-30 21:38:00,72.1,59.7,29.94,South,180,9.6,9.6,65,0.00,,,0.00,WUHU21623XXSP,2013-05-01 02:38:00,
2013-04-30 21:43:00,72.1,59.7,29.95,SSE,157,8.3,9.6,65,0.00,,,0.00,WUHU21623XXSP,2013-05-01 02:43:00,
2013-04-30 21:48:00,72.0,59.7,29.95,SSE,157,7.6,8.7,65,0.00,,,0.00,WUHU21623XXSP,2013-05-01 02:48:00,
2013-04-30 21:53:00,72.0,59.5,29.94,SE,135,5.1,8.9,65,0.00,,,0.00,WUHU21623XXSP,2013-05-01 02:53:00,
2013-04-30 21:58:00,72.0,59.5,29.94,SSE,157,10.1,13.9,65,0.00,,,0.00,WUHU21623XXSP,2013-05-01 02:58:00,
2013-04-30 22:03:00,71.8,59.3,29.94,South,180,9.2,13.9,65,0.00,,,0.00,WUHU21623XXSP,2013-05-01 03:03:00,
2013-04-30 22:08:00,71.8,59.3,29.95,SSE,157,10.1,10.1,65,0.00,,,0.00,WUHU21623XXSP,2013-05-01 03:08:00,
2013-04-30 22:13:00,71.4,59.0,29.95,SSE,157,5.4,10.1,65,0.00,,,0.00,WUHU21623XXSP,2013-05-01 03:13:00,
2013-04-30 22:18:00,71.4,59.0,29.95,SSE,157,9.2,9.2,65,0.00,,,0.00,WUHU21623XXSP,2013-05-01 03:18:00,
2013-04-30 22:23:00,71.2,58.8,29.95,South,180,6.7,9.2,66,0.00,,,0.00,WUHU21623XXSP,2013-05-01 03:23:00,
2013-04-30 22:28:00,71.2,59.3,29.95,SSE,157,6.0,8.5,66,0.00,,,0.00,WUHU21623XXSP,2013-05-01 03:28:00,
2013-04-30 22:33:00,70.9,58.9,29.95,SSE,157,8.5,9.8,66,0.00,,,0.00,WUHU21623XXSP,2013-05-01 03:33:00,
2013-04-30 22:38:00,70.9,59.1,29.95,SSE,157,6.3,9.8,66,0.00,,,0.00,WUHU21623XXSP,2013-05-01 03:38:00,
2013-04-30 22:43:00,70.9,58.9,29.95,SSE,157,8.7,8.7,66,0.00,,,0.00,WUHU21623XXSP,2013-05-01 03:43:00,
2013-04-30 22:48:00,70.9,58.9,29.95,South,180,8.9,10.1,66,0.00,,,0.00,WUHU21623XXSP,2013-05-01 03:48:00,
2013-04-30 22:53:00,70.9,58.9,29.95,South,180,7.4,10.1,66,0.00,,,0.00,WUHU21623XXSP,2013-05-01 03:53:00,
2013-04-30 22:58:00,70.9,58.9,29.95,South,180,6.3,7.4,66,0.00,,,0.00,WUHU21623XXSP,2013-05-01 03:58:00,
2013-04-30 23:01:00,70.7,58.7,29.95,South,180,7.8,7.8,66,0.00,,,0.00,WUHU21623XXSP,2013-05-01 04:01:00,
2013-04-30 23:06:00,70.7,58.7,29.95,SSE,157,11.9,11.9,66,0.00,,,0.00,WUHU21623XXSP,2013-05-01 04:06:00,
2013-04-30 23:11:00,70.5,58.6,29.95,SSE,157,11.9,11.9,66,0.00,,,0.00,WUHU21623XXSP,2013-05-01 04:11:00,
2013-04-30 23:16:00,70.3,58.4,29.96,SSE,157,8.3,11.9,66,0.00,,,0.00,WUHU21623XXSP,2013-05-01 04:16:00,
2013-04-30 23:21:00,70.3,58.4,29.96,SSE,157,7.8,10.1,66,0.00,,,0.00,WUHU21623XXSP,2013-05-01 04:21:00,
2013-04-30 23:26:00,70.2,58.2,29.96,South,180,6.9,8.3,66,0.00,,,0.00,WUHU21623XXSP,2013-05-01 04:26:00,
2013-04-30 23:31:00,70.0,58.0,29.96,South,180,5.4,6.9,66,0.00,,,0.00,WUHU21623XXSP,2013-05-01 04:31:00,
2013-04-30 23:36:00,70.0,58.0,29.96,South,180,6.0,6.9,66,0.00,,,0.00,WUHU21623XXSP,2013-05-01 04:36:00,
2013-04-30 23:41:00,69.8,57.9,29.96,SSE,157,8.3,8.3,66,0.00,,,0.00,WUHU21623XXSP,2013-05-01 04:41:00,
2013-04-30 23:46:00,69.8,58.1,29.96,SSE,157,6.9,8.3,67,0.00,,,0.00,WUHU21623XXSP,2013-05-01 04:46:00,
2013-04-30 23:51:00,69.8,58.3,29.96,SSE,157,7.4,10.3,67,0.00,,,0.00,WUHU21623XXSP,2013-05-01 04:51:00,
2013-04-30 23:56:00,69.8,58.3,29.96,South,180,8.7,10.3,67,0.00,,,0.00,WUHU21623XXSP,2013-05-01 04:56:00,